contact: severine.martini@mio.osupytheas.fr, dominique.lefevre@mio.osupytheas.fr
Project:EMSO Ligure-ouest http://www.emso-fr.org/EMSO-France
Sensor Microcat Sea-Bird SBE37 SMP,  Serial 57510 
DOI : "https://doi.org/10.17882/97948" 
Title:EMSO Ligure Ouest : Data Bathybot capteur Microcat - deploiement 2023-04-28
Datetime,Profondeur,Latitude,Longitude,Temperature,Conductivite,Pression,Salinite
time,m,degree_north,degree_east,degree_C,S/m,db,PSU 
2023-09-25T00:00:49,2420,42.8014,5.9826,13.2970,4.59880,2453.627,38.4851
2023-09-25T00:03:49,2420,42.8014,5.9826,13.2970,4.59877,2453.604,38.4849
2023-09-25T00:06:49,2420,42.8014,5.9826,13.2968,4.59877,2453.612,38.4851
2023-09-25T00:09:49,2420,42.8014,5.9826,13.2967,4.59877,2453.627,38.4851
2023-09-25T00:12:49,2420,42.8014,5.9826,13.2968,4.59878,2453.627,38.4851
2023-09-25T00:15:49,2420,42.8014,5.9826,13.2968,4.59880,2453.604,38.4853
2023-09-25T00:18:49,2420,42.8014,5.9826,13.2970,4.59878,2453.590,38.4850
2023-09-25T00:21:49,2420,42.8014,5.9826,13.2968,4.59877,2453.627,38.4851
2023-09-25T00:24:49,2420,42.8014,5.9826,13.2973,4.59879,2453.604,38.4847
2023-09-25T00:27:49,2420,42.8014,5.9826,13.2973,4.59879,2453.627,38.4848
2023-09-25T00:30:49,2420,42.8014,5.9826,13.2968,4.59880,2453.627,38.4853
2023-09-25T00:33:49,2420,42.8014,5.9826,13.2970,4.59882,2453.627,38.4853
2023-09-25T00:36:49,2420,42.8014,5.9826,13.2973,4.59884,2453.627,38.4852
2023-09-25T00:39:49,2420,42.8014,5.9826,13.2970,4.59880,2453.635,38.4851
2023-09-25T00:42:49,2420,42.8014,5.9826,13.2966,4.59876,2453.619,38.4851
2023-09-25T00:45:49,2420,42.8014,5.9826,13.2969,4.59877,2453.627,38.4849
2023-09-25T00:48:49,2420,42.8014,5.9826,13.2972,4.59880,2453.612,38.4849
2023-09-25T00:51:49,2420,42.8014,5.9826,13.2968,4.59880,2453.627,38.4853
2023-09-25T00:54:49,2420,42.8014,5.9826,13.2970,4.59878,2453.641,38.4850
2023-09-25T00:57:49,2420,42.8014,5.9826,13.2970,4.59876,2453.649,38.4847
2023-09-25T01:00:49,2420,42.8014,5.9826,13.2971,4.59877,2453.641,38.4847
2023-09-25T01:03:49,2420,42.8014,5.9826,13.2971,4.59876,2453.627,38.4846
2023-09-25T01:06:49,2420,42.8014,5.9826,13.2968,4.59878,2453.649,38.4851
2023-09-25T01:09:49,2420,42.8014,5.9826,13.2968,4.59883,2453.627,38.4856
2023-09-25T01:12:49,2420,42.8014,5.9826,13.2971,4.59878,2453.627,38.4848
2023-09-25T01:15:49,2420,42.8014,5.9826,13.2973,4.59878,2453.604,38.4847
2023-09-25T01:18:49,2420,42.8014,5.9826,13.2969,4.59877,2453.627,38.4849
2023-09-25T01:21:49,2420,42.8014,5.9826,13.2966,4.59877,2453.641,38.4853
2023-09-25T01:24:49,2420,42.8014,5.9826,13.2972,4.59875,2453.627,38.4845
2023-09-25T01:27:49,2420,42.8014,5.9826,13.2971,4.59879,2453.612,38.4849
2023-09-25T01:30:50,2420,42.8014,5.9826,13.2970,4.59881,2453.627,38.4853
2023-09-25T01:33:49,2420,42.8014,5.9826,13.2968,4.59875,2453.627,38.4849
2023-09-25T01:36:49,2420,42.8014,5.9826,13.2969,4.59874,2453.649,38.4846
2023-09-25T01:39:49,2420,42.8014,5.9826,13.2970,4.59875,2453.649,38.4846
2023-09-25T01:42:49,2420,42.8014,5.9826,13.2970,4.59878,2453.627,38.4850
2023-09-25T01:45:49,2420,42.8014,5.9826,13.2970,4.59879,2453.627,38.4850
2023-09-25T01:48:49,2420,42.8014,5.9826,13.2970,4.59883,2453.604,38.4854
2023-09-25T01:51:49,2420,42.8014,5.9826,13.2968,4.59878,2453.649,38.4851
2023-09-25T01:54:49,2420,42.8014,5.9826,13.2970,4.59880,2453.649,38.4851
2023-09-25T01:57:49,2420,42.8014,5.9826,13.2973,4.59889,2453.649,38.4856
2023-09-25T02:00:49,2420,42.8014,5.9826,13.2970,4.59878,2453.635,38.4850
2023-09-25T02:03:49,2420,42.8014,5.9826,13.2968,4.59882,2453.672,38.4855
2023-09-25T02:06:49,2420,42.8014,5.9826,13.2970,4.59881,2453.672,38.4852
2023-09-25T02:09:49,2420,42.8014,5.9826,13.2966,4.59877,2453.649,38.4852
2023-09-25T02:12:49,2420,42.8014,5.9826,13.2970,4.59884,2453.627,38.4856
2023-09-25T02:15:49,2420,42.8014,5.9826,13.2971,4.59883,2453.649,38.4853
2023-09-25T02:18:49,2420,42.8014,5.9826,13.2973,4.59880,2453.649,38.4848
2023-09-25T02:21:49,2420,42.8014,5.9826,13.2970,4.59884,2453.627,38.4855
2023-09-25T02:24:49,2420,42.8014,5.9826,13.2970,4.59882,2453.649,38.4853
2023-09-25T02:27:49,2420,42.8014,5.9826,13.2968,4.59880,2453.672,38.4852
2023-09-25T02:30:50,2420,42.8014,5.9826,13.2968,4.59878,2453.649,38.4852
2023-09-25T02:33:49,2420,42.8014,5.9826,13.2970,4.59881,2453.649,38.4852
2023-09-25T02:36:49,2420,42.8014,5.9826,13.2972,4.59883,2453.649,38.4852
2023-09-25T02:39:49,2420,42.8014,5.9826,13.2970,4.59886,2453.649,38.4856
2023-09-25T02:42:49,2420,42.8014,5.9826,13.2971,4.59887,2453.649,38.4857
2023-09-25T02:45:49,2420,42.8014,5.9826,13.2966,4.59883,2453.612,38.4858
2023-09-25T02:48:49,2420,42.8014,5.9826,13.2973,4.59886,2453.627,38.4853
2023-09-25T02:51:49,2420,42.8014,5.9826,13.2973,4.59883,2453.612,38.4852
2023-09-25T02:54:49,2420,42.8014,5.9826,13.2968,4.59883,2453.649,38.4857
2023-09-25T02:57:49,2420,42.8014,5.9826,13.2974,4.59892,2453.657,38.4858
2023-09-25T03:00:49,2420,42.8014,5.9826,13.2973,4.59895,2453.649,38.4862
2023-09-25T03:03:49,2420,42.8014,5.9826,13.2970,4.59881,2453.649,38.4853
2023-09-25T03:06:49,2420,42.8014,5.9826,13.2973,4.59877,2453.672,38.4846
2023-09-25T03:09:49,2420,42.8014,5.9826,13.2975,4.59889,2453.649,38.4855
2023-09-25T03:12:49,2420,42.8014,5.9826,13.2972,4.59886,2453.672,38.4855
2023-09-25T03:15:49,2420,42.8014,5.9826,13.2971,4.59880,2453.649,38.4851
2023-09-25T03:18:49,2420,42.8014,5.9826,13.2970,4.59877,2453.672,38.4848
2023-09-25T03:21:49,2420,42.8014,5.9826,13.2966,4.59877,2453.627,38.4852
2023-09-25T03:24:49,2420,42.8014,5.9826,13.2970,4.59878,2453.672,38.4850
2023-09-25T03:27:49,2420,42.8014,5.9826,13.2970,4.59880,2453.649,38.4851
2023-09-25T03:30:49,2420,42.8014,5.9826,13.2972,4.59884,2453.672,38.4853
2023-09-25T03:33:49,2420,42.8014,5.9826,13.2969,4.59886,2453.627,38.4858
2023-09-25T03:36:49,2420,42.8014,5.9826,13.2970,4.59889,2453.627,38.4859
2023-09-25T03:39:49,2420,42.8014,5.9826,13.2971,4.59883,2453.635,38.4853
2023-09-25T03:42:49,2420,42.8014,5.9826,13.2970,4.59886,2453.672,38.4857
2023-09-25T03:45:49,2420,42.8014,5.9826,13.2970,4.59888,2453.695,38.4859
2023-09-25T03:48:49,2420,42.8014,5.9826,13.2968,4.59887,2453.672,38.4860
2023-09-25T03:51:49,2420,42.8014,5.9826,13.2967,4.59889,2453.664,38.4862
2023-09-25T03:54:49,2420,42.8014,5.9826,13.2971,4.59889,2453.717,38.4859
2023-09-25T03:57:49,2420,42.8014,5.9826,13.2971,4.59885,2453.672,38.4855
2023-09-25T04:00:49,2420,42.8014,5.9826,13.2973,4.59884,2453.649,38.4852
2023-09-25T04:03:49,2420,42.8014,5.9826,13.2973,4.59889,2453.687,38.4856
2023-09-25T04:06:49,2420,42.8014,5.9826,13.2971,4.59883,2453.664,38.4853
2023-09-25T04:09:49,2420,42.8014,5.9826,13.2970,4.59885,2453.649,38.4856
2023-09-25T04:12:49,2420,42.8014,5.9826,13.2970,4.59888,2453.649,38.4858
2023-09-25T04:15:49,2420,42.8014,5.9826,13.2975,4.59884,2453.672,38.4851
2023-09-25T04:18:49,2420,42.8014,5.9826,13.2973,4.59884,2453.672,38.4852
2023-09-25T04:21:49,2420,42.8014,5.9826,13.2973,4.59881,2453.657,38.4850
2023-09-25T04:24:49,2420,42.8014,5.9826,13.2971,4.59883,2453.649,38.4853
2023-09-25T04:27:49,2420,42.8014,5.9826,13.2976,4.59883,2453.649,38.4849
2023-09-25T04:30:49,2420,42.8014,5.9826,13.2970,4.59885,2453.672,38.4856
2023-09-25T04:33:49,2420,42.8014,5.9826,13.2972,4.59880,2453.627,38.4849
2023-09-25T04:36:49,2420,42.8014,5.9826,13.2971,4.59882,2453.627,38.4852
2023-09-25T04:39:49,2420,42.8014,5.9826,13.2973,4.59881,2453.649,38.4850
2023-09-25T04:42:49,2420,42.8014,5.9826,13.2969,4.59881,2453.649,38.4853
2023-09-25T04:45:49,2420,42.8014,5.9826,13.2973,4.59885,2453.672,38.4853
2023-09-25T04:48:49,2420,42.8014,5.9826,13.2969,4.59884,2453.649,38.4856
2023-09-25T04:51:49,2420,42.8014,5.9826,13.2971,4.59881,2453.649,38.4851
2023-09-25T04:54:49,2420,42.8014,5.9826,13.2968,4.59878,2453.672,38.4851
2023-09-25T04:57:49,2420,42.8014,5.9826,13.2970,4.59884,2453.649,38.4856
2023-09-25T05:00:49,2420,42.8014,5.9826,13.2968,4.59883,2453.649,38.4855
2023-09-25T05:03:49,2420,42.8014,5.9826,13.2973,4.59883,2453.649,38.4851
2023-09-25T05:06:49,2420,42.8014,5.9826,13.2972,4.59885,2453.649,38.4854
2023-09-25T05:09:49,2420,42.8014,5.9826,13.2970,4.59883,2453.627,38.4854
2023-09-25T05:12:49,2420,42.8014,5.9826,13.2971,4.59884,2453.649,38.4854
2023-09-25T05:15:49,2420,42.8014,5.9826,13.2971,4.59883,2453.627,38.4853
2023-09-25T05:18:49,2420,42.8014,5.9826,13.2970,4.59887,2453.649,38.4858
2023-09-25T05:21:49,2420,42.8014,5.9826,13.2970,4.59885,2453.649,38.4856
2023-09-25T05:24:49,2420,42.8014,5.9826,13.2968,4.59884,2453.635,38.4858
2023-09-25T05:27:49,2420,42.8014,5.9826,13.2973,4.59886,2453.657,38.4854
2023-09-25T05:30:49,2420,42.8014,5.9826,13.2973,4.59885,2453.695,38.4853
2023-09-25T05:33:49,2420,42.8014,5.9826,13.2963,4.59887,2453.649,38.4865
2023-09-25T05:36:49,2420,42.8014,5.9826,13.2968,4.59880,2453.649,38.4853
2023-09-25T05:39:49,2420,42.8014,5.9826,13.2968,4.59886,2453.627,38.4859
2023-09-25T05:42:49,2420,42.8014,5.9826,13.2970,4.59889,2453.672,38.4859
2023-09-25T05:45:49,2420,42.8014,5.9826,13.2967,4.59886,2453.672,38.4860
2023-09-25T05:48:49,2420,42.8014,5.9826,13.2966,4.59892,2453.672,38.4866
2023-09-25T05:51:49,2420,42.8014,5.9826,13.2970,4.59895,2453.649,38.4865
2023-09-25T05:54:49,2420,42.8014,5.9826,13.2970,4.59912,2453.649,38.4882
2023-09-25T05:57:49,2420,42.8014,5.9826,13.2970,4.59896,2453.612,38.4867
2023-09-25T06:00:49,2420,42.8014,5.9826,13.2977,4.59890,2453.627,38.4854
2023-09-25T06:03:49,2420,42.8014,5.9826,13.2973,4.59898,2453.627,38.4865
2023-09-25T06:06:49,2420,42.8014,5.9826,13.2968,4.59886,2453.649,38.4860
2023-09-25T06:09:49,2420,42.8014,5.9826,13.2970,4.59891,2453.672,38.4861
2023-09-25T06:12:49,2420,42.8014,5.9826,13.2969,4.59886,2453.649,38.4857
2023-09-25T06:15:49,2420,42.8014,5.9826,13.2970,4.59883,2453.649,38.4854
2023-09-25T06:18:49,2420,42.8014,5.9826,13.2970,4.59887,2453.649,38.4858
2023-09-25T06:21:49,2420,42.8014,5.9826,13.2969,4.59891,2453.627,38.4863
2023-09-25T06:24:49,2420,42.8014,5.9826,13.2973,4.59886,2453.664,38.4853
2023-09-25T06:27:49,2420,42.8014,5.9826,13.2973,4.59882,2453.612,38.4850
2023-09-25T06:30:49,2420,42.8014,5.9826,13.2970,4.59892,2453.672,38.4862
2023-09-25T06:33:49,2420,42.8014,5.9826,13.2971,4.59890,2453.641,38.4859
2023-09-25T06:36:49,2420,42.8014,5.9826,13.2969,4.59885,2453.627,38.4857
2023-09-25T06:39:49,2420,42.8014,5.9826,13.2968,4.59878,2453.664,38.4852
2023-09-25T06:42:49,2420,42.8014,5.9826,13.2970,4.59877,2453.664,38.4848
2023-09-25T06:45:49,2420,42.8014,5.9826,13.2967,4.59889,2453.649,38.4862
2023-09-25T06:48:49,2420,42.8014,5.9826,13.2978,4.59896,2453.627,38.4858
2023-09-25T06:51:49,2420,42.8014,5.9826,13.2968,4.59886,2453.627,38.4859
2023-09-25T06:54:49,2420,42.8014,5.9826,13.2971,4.59883,2453.635,38.4853
2023-09-25T06:57:49,2420,42.8014,5.9826,13.2972,4.59892,2453.649,38.4860
2023-09-25T07:00:49,2420,42.8014,5.9826,13.2967,4.59890,2453.612,38.4864
2023-09-25T07:03:49,2420,42.8014,5.9826,13.2970,4.59881,2453.649,38.4853
2023-09-25T07:06:49,2420,42.8014,5.9826,13.2970,4.59888,2453.649,38.4858
2023-09-25T07:09:49,2420,42.8014,5.9826,13.2968,4.59893,2453.649,38.4865
2023-09-25T07:12:49,2420,42.8014,5.9826,13.2972,4.59890,2453.619,38.4859
2023-09-25T07:15:49,2420,42.8014,5.9826,13.2970,4.59879,2453.641,38.4850
2023-09-25T07:18:49,2420,42.8014,5.9826,13.2970,4.59877,2453.627,38.4848
2023-09-25T07:21:49,2420,42.8014,5.9826,13.2970,4.59879,2453.590,38.4851
2023-09-25T07:24:49,2420,42.8014,5.9826,13.2968,4.59883,2453.627,38.4856
2023-09-25T07:27:49,2420,42.8014,5.9826,13.2968,4.59887,2453.649,38.4859
2023-09-25T07:30:49,2420,42.8014,5.9826,13.2968,4.59890,2453.649,38.4862
2023-09-25T07:33:49,2420,42.8014,5.9826,13.2966,4.59888,2453.627,38.4863
2023-09-25T07:36:49,2420,42.8014,5.9826,13.2970,4.59889,2453.604,38.4860
2023-09-25T07:39:49,2420,42.8014,5.9826,13.2970,4.59896,2453.627,38.4867
2023-09-25T07:42:49,2420,42.8014,5.9826,13.2974,4.59900,2453.649,38.4866
2023-09-25T07:45:49,2420,42.8014,5.9826,13.2967,4.59884,2453.612,38.4858
2023-09-25T07:48:49,2420,42.8014,5.9826,13.2969,4.59931,2453.641,38.4900
2023-09-25T07:51:49,2420,42.8014,5.9826,13.2966,4.59888,2453.664,38.4863
2023-09-25T07:54:49,2420,42.8014,5.9826,13.2969,4.59880,2453.627,38.4852
2023-09-25T07:57:49,2420,42.8014,5.9826,13.2969,4.59883,2453.582,38.4856
2023-09-25T08:00:50,2420,42.8014,5.9826,13.2970,4.59885,2453.627,38.4856
2023-09-25T08:03:49,2420,42.8014,5.9826,13.2970,4.59887,2453.627,38.4858
2023-09-25T08:06:49,2420,42.8014,5.9826,13.2969,4.59897,2453.627,38.4869
2023-09-25T08:09:49,2420,42.8014,5.9826,13.2970,4.59884,2453.604,38.4855
2023-09-25T08:12:49,2420,42.8014,5.9826,13.2970,4.59883,2453.604,38.4854
2023-09-25T08:15:49,2420,42.8014,5.9826,13.2970,4.59887,2453.590,38.4858
2023-09-25T08:18:49,2420,42.8014,5.9826,13.2970,4.59894,2453.604,38.4865
2023-09-25T08:21:49,2420,42.8014,5.9826,13.2971,4.59891,2453.559,38.4860
2023-09-25T08:24:49,2420,42.8014,5.9826,13.2969,4.59892,2453.582,38.4864
2023-09-25T08:27:49,2420,42.8014,5.9826,13.2966,4.59891,2453.604,38.4866
2023-09-25T08:30:50,2420,42.8014,5.9826,13.2971,4.59886,2453.590,38.4856
2023-09-25T08:33:49,2420,42.8014,5.9826,13.2968,4.59897,2453.604,38.4869
2023-09-25T08:36:49,2420,42.8014,5.9826,13.2971,4.59891,2453.604,38.4860
2023-09-25T08:39:49,2420,42.8014,5.9826,13.2968,4.59889,2453.604,38.4862
2023-09-25T08:42:49,2420,42.8014,5.9826,13.2970,4.59894,2453.612,38.4865
2023-09-25T08:45:49,2420,42.8014,5.9826,13.2970,4.59908,2453.604,38.4878
2023-09-25T08:48:49,2420,42.8014,5.9826,13.2973,4.59937,2453.590,38.4902
2023-09-25T08:51:49,2420,42.8014,5.9826,13.2977,4.60036,2453.582,38.4992
2023-09-25T08:54:49,2420,42.8014,5.9826,13.2985,4.59992,2453.582,38.4943
2023-09-25T08:57:49,2420,42.8014,5.9826,13.2970,4.59937,2453.567,38.4905
2023-09-25T09:00:49,2420,42.8014,5.9826,13.2975,4.59983,2453.604,38.4944
2023-09-25T09:03:49,2420,42.8014,5.9826,13.2975,4.59932,2453.604,38.4896
2023-09-25T09:06:49,2420,42.8014,5.9826,13.2971,4.59903,2453.567,38.4872
2023-09-25T09:09:49,2420,42.8014,5.9826,13.2968,4.59907,2453.582,38.4879
2023-09-25T09:12:49,2420,42.8014,5.9826,13.2968,4.59892,2453.627,38.4865
2023-09-25T09:15:49,2420,42.8014,5.9826,13.2971,4.59896,2453.567,38.4866
2023-09-25T09:18:49,2420,42.8014,5.9826,13.2974,4.59922,2453.582,38.4887
2023-09-25T09:21:49,2420,42.8014,5.9826,13.2970,4.59896,2453.604,38.4866
2023-09-25T09:24:49,2420,42.8014,5.9826,13.2971,4.59892,2453.604,38.4862
2023-09-25T09:27:49,2420,42.8014,5.9826,13.2970,4.59894,2453.604,38.4865
2023-09-25T09:30:49,2420,42.8014,5.9826,13.2973,4.59900,2453.582,38.4867
2023-09-25T09:33:49,2420,42.8014,5.9826,13.2973,4.59897,2453.596,38.4865
2023-09-25T09:36:49,2420,42.8014,5.9826,13.2968,4.59890,2453.604,38.4862
2023-09-25T09:39:49,2420,42.8014,5.9826,13.2968,4.59912,2453.641,38.4884
2023-09-25T09:42:49,2420,42.8014,5.9826,13.2970,4.59922,2453.582,38.4891
2023-09-25T09:45:49,2420,42.8014,5.9826,13.2971,4.59915,2453.582,38.4884
2023-09-25T09:48:49,2420,42.8014,5.9826,13.2972,4.59951,2453.567,38.4916
2023-09-25T09:51:49,2420,42.8014,5.9826,13.2968,4.59898,2453.582,38.4871
2023-09-25T09:54:49,2420,42.8014,5.9826,13.2969,4.59897,2453.567,38.4868
2023-09-25T09:57:49,2420,42.8014,5.9826,13.2972,4.59896,2453.604,38.4865
2023-09-25T10:00:49,2420,42.8014,5.9826,13.2968,4.59897,2453.582,38.4870
2023-09-25T10:03:49,2420,42.8014,5.9826,13.2967,4.59891,2453.582,38.4865
2023-09-25T10:06:49,2420,42.8014,5.9826,13.2968,4.59896,2453.590,38.4869
2023-09-25T10:09:49,2420,42.8014,5.9826,13.2968,4.59898,2453.544,38.4870
2023-09-25T10:12:49,2420,42.8014,5.9826,13.2969,4.59903,2453.582,38.4874
2023-09-25T10:15:49,2420,42.8014,5.9826,13.2967,4.59894,2453.559,38.4868
2023-09-25T10:18:49,2420,42.8014,5.9826,13.2970,4.59897,2453.582,38.4868
2023-09-25T10:21:49,2420,42.8014,5.9826,13.2970,4.59897,2453.582,38.4867
2023-09-25T10:24:49,2420,42.8014,5.9826,13.2968,4.59891,2453.604,38.4864
2023-09-25T10:27:49,2420,42.8014,5.9826,13.2967,4.59897,2453.582,38.4870
2023-09-25T10:30:49,2420,42.8014,5.9826,13.2966,4.59892,2453.582,38.4867
2023-09-25T10:33:49,2420,42.8014,5.9826,13.2967,4.59897,2453.567,38.4870
2023-09-25T10:36:49,2420,42.8014,5.9826,13.2967,4.59897,2453.604,38.4870
2023-09-25T10:39:49,2420,42.8014,5.9826,13.2970,4.59908,2453.590,38.4878
2023-09-25T10:42:49,2420,42.8014,5.9826,13.2967,4.59903,2453.582,38.4876
2023-09-25T10:45:49,2420,42.8014,5.9826,13.2973,4.59930,2453.590,38.4896
2023-09-25T10:48:49,2420,42.8014,5.9826,13.2975,4.59901,2453.604,38.4866
2023-09-25T10:51:49,2420,42.8014,5.9826,13.2970,4.59898,2453.604,38.4868
2023-09-25T10:54:49,2420,42.8014,5.9826,13.2976,4.59906,2453.604,38.4870
2023-09-25T10:57:49,2420,42.8014,5.9826,13.2974,4.59941,2453.604,38.4905
2023-09-25T11:00:49,2420,42.8014,5.9826,13.2978,4.59926,2453.582,38.4888
2023-09-25T11:03:49,2420,42.8014,5.9826,13.2988,4.59906,2453.596,38.4859
2023-09-25T11:06:49,2420,42.8014,5.9826,13.2996,4.59926,2453.627,38.4869
2023-09-25T11:09:49,2420,42.8014,5.9826,13.2975,4.59917,2453.604,38.4882
2023-09-25T11:12:49,2420,42.8014,5.9826,13.2998,4.59926,2453.627,38.4867
2023-09-25T11:15:49,2420,42.8014,5.9826,13.2994,4.59928,2453.604,38.4872
2023-09-25T11:18:49,2420,42.8014,5.9826,13.2989,4.59915,2453.604,38.4866
2023-09-25T11:21:49,2420,42.8014,5.9826,13.2977,4.59928,2453.627,38.4890
2023-09-25T11:24:49,2420,42.8014,5.9826,13.3000,4.59914,2453.627,38.4854
2023-09-25T11:27:49,2420,42.8014,5.9826,13.2979,4.59931,2453.641,38.4890
2023-09-25T11:30:50,2420,42.8014,5.9826,13.3001,4.59932,2453.627,38.4869
2023-09-25T11:33:49,2420,42.8014,5.9826,13.2998,4.59914,2453.627,38.4856
2023-09-25T11:36:49,2420,42.8014,5.9826,13.2975,4.59907,2453.604,38.4872
2023-09-25T11:39:49,2420,42.8014,5.9826,13.2979,4.59930,2453.649,38.4889
2023-09-25T11:42:49,2420,42.8014,5.9826,13.2981,4.59911,2453.641,38.4870
2023-09-25T11:45:49,2420,42.8014,5.9826,13.2970,4.59908,2453.627,38.4878
2023-09-25T11:48:49,2420,42.8014,5.9826,13.2975,4.59927,2453.604,38.4891
2023-09-25T11:51:49,2420,42.8014,5.9826,13.2988,4.59909,2453.649,38.4861
2023-09-25T11:54:49,2420,42.8014,5.9826,13.2983,4.59946,2453.619,38.4900
2023-09-25T11:57:49,2420,42.8014,5.9826,13.2985,4.59906,2453.649,38.4862
2023-09-25T12:00:49,2420,42.8014,5.9826,13.2978,4.59903,2453.664,38.4864
2023-09-25T12:03:49,2420,42.8014,5.9826,13.2977,4.59906,2453.649,38.4869
2023-09-25T12:06:49,2420,42.8014,5.9826,13.2979,4.59910,2453.649,38.4871
2023-09-25T12:09:49,2420,42.8014,5.9826,13.2975,4.59908,2453.635,38.4873
2023-09-25T12:12:49,2420,42.8014,5.9826,13.2968,4.59906,2453.649,38.4878
2023-09-25T12:15:49,2420,42.8014,5.9826,13.2970,4.59899,2453.649,38.4869
2023-09-25T12:18:49,2420,42.8014,5.9826,13.2971,4.59897,2453.649,38.4866
2023-09-25T12:21:49,2420,42.8014,5.9826,13.2968,4.59923,2453.641,38.4894
2023-09-25T12:24:49,2420,42.8014,5.9826,13.2976,4.59908,2453.657,38.4871
2023-09-25T12:27:49,2420,42.8014,5.9826,13.2972,4.59905,2453.649,38.4873
2023-09-25T12:30:49,2420,42.8014,5.9826,13.2975,4.59895,2453.672,38.4860
2023-09-25T12:33:49,2420,42.8014,5.9826,13.2968,4.59906,2453.635,38.4879
2023-09-25T12:36:49,2420,42.8014,5.9826,13.2973,4.59900,2453.649,38.4867
2023-09-25T12:39:49,2420,42.8014,5.9826,13.2970,4.59906,2453.664,38.4876
2023-09-25T12:42:49,2420,42.8014,5.9826,13.2974,4.59902,2453.672,38.4868
2023-09-25T12:45:49,2420,42.8014,5.9826,13.2968,4.59899,2453.672,38.4871
2023-09-25T12:48:49,2420,42.8014,5.9826,13.2970,4.59909,2453.649,38.4878
2023-09-25T12:51:49,2420,42.8014,5.9826,13.2972,4.59909,2453.649,38.4876
2023-09-25T12:54:49,2420,42.8014,5.9826,13.2970,4.59897,2453.649,38.4867
2023-09-25T12:57:49,2420,42.8014,5.9826,13.2970,4.59892,2453.672,38.4862
2023-09-25T13:00:49,2420,42.8014,5.9826,13.2973,4.59898,2453.649,38.4865
2023-09-25T13:03:49,2420,42.8014,5.9826,13.2970,4.59900,2453.649,38.4871
2023-09-25T13:06:49,2420,42.8014,5.9826,13.2970,4.59895,2453.717,38.4866
2023-09-25T13:09:49,2420,42.8014,5.9826,13.2970,4.59898,2453.695,38.4868
2023-09-25T13:12:49,2420,42.8014,5.9826,13.2968,4.59904,2453.672,38.4876
2023-09-25T13:15:49,2420,42.8014,5.9826,13.2968,4.59897,2453.709,38.4868
2023-09-25T13:18:49,2420,42.8014,5.9826,13.2970,4.59903,2453.680,38.4874
2023-09-25T13:21:49,2420,42.8014,5.9826,13.2970,4.59900,2453.672,38.4869
2023-09-25T13:24:49,2420,42.8014,5.9826,13.2966,4.59894,2453.672,38.4868
2023-09-25T13:27:49,2420,42.8014,5.9826,13.2969,4.59895,2453.695,38.4866
2023-09-25T13:30:49,2420,42.8014,5.9826,13.2968,4.59894,2453.680,38.4866
2023-09-25T13:33:49,2420,42.8014,5.9826,13.2973,4.59894,2453.695,38.4861
2023-09-25T13:36:49,2420,42.8014,5.9826,13.2971,4.59901,2453.695,38.4870
2023-09-25T13:39:49,2420,42.8014,5.9826,13.2970,4.59906,2453.695,38.4876
2023-09-25T13:42:49,2420,42.8014,5.9826,13.2971,4.59906,2453.717,38.4874
2023-09-25T13:45:49,2420,42.8014,5.9826,13.2972,4.59904,2453.717,38.4872
2023-09-25T13:48:49,2420,42.8014,5.9826,13.2973,4.59903,2453.695,38.4870
2023-09-25T13:51:49,2420,42.8014,5.9826,13.2973,4.59899,2453.717,38.4866
2023-09-25T13:54:50,2420,42.8014,5.9826,13.2970,4.59899,2453.695,38.4869
2023-09-25T13:57:49,2420,42.8014,5.9826,13.2969,4.59897,2453.717,38.4868
2023-09-25T14:00:49,2420,42.8014,5.9826,13.2966,4.59900,2453.717,38.4873
2023-09-25T14:03:50,2420,42.8014,5.9826,13.2972,4.59900,2453.740,38.4868
2023-09-25T14:06:49,2420,42.8014,5.9826,13.2973,4.59905,2453.740,38.4871
2023-09-25T14:09:49,2420,42.8014,5.9826,13.2975,4.59911,2453.717,38.4876
2023-09-25T14:12:49,2420,42.8014,5.9826,13.2968,4.59909,2453.695,38.4879
2023-09-25T14:15:49,2420,42.8014,5.9826,13.2975,4.59894,2453.740,38.4859
2023-09-25T14:18:49,2420,42.8014,5.9826,13.2968,4.59899,2453.725,38.4870
2023-09-25T14:21:49,2420,42.8014,5.9826,13.2968,4.59892,2453.754,38.4864
2023-09-25T14:24:49,2420,42.8014,5.9826,13.2968,4.59891,2453.754,38.4863
2023-09-25T14:27:49,2420,42.8014,5.9826,13.2970,4.59895,2453.717,38.4866
2023-09-25T14:30:49,2420,42.8014,5.9826,13.2970,4.59896,2453.762,38.4866
2023-09-25T14:33:49,2420,42.8014,5.9826,13.2966,4.59894,2453.717,38.4869
2023-09-25T14:36:49,2420,42.8014,5.9826,13.2971,4.59894,2453.762,38.4863
2023-09-25T14:39:49,2420,42.8014,5.9826,13.2970,4.59892,2453.740,38.4862
2023-09-25T14:42:49,2420,42.8014,5.9826,13.2968,4.59892,2453.717,38.4864
2023-09-25T14:45:49,2420,42.8014,5.9826,13.2972,4.59894,2453.740,38.4863
2023-09-25T14:48:49,2420,42.8014,5.9826,13.2967,4.59903,2453.740,38.4875
2023-09-25T14:51:49,2420,42.8014,5.9826,13.2970,4.59897,2453.762,38.4866
2023-09-25T14:54:50,2420,42.8014,5.9826,13.2968,4.59900,2453.748,38.4872
2023-09-25T14:57:49,2420,42.8014,5.9826,13.2968,4.59892,2453.725,38.4864
2023-09-25T15:00:49,2420,42.8014,5.9826,13.2970,4.59893,2453.762,38.4863
2023-09-25T15:03:49,2420,42.8014,5.9826,13.2967,4.59897,2453.754,38.4870
2023-09-25T15:06:49,2420,42.8014,5.9826,13.2969,4.59897,2453.748,38.4868
2023-09-25T15:09:49,2420,42.8014,5.9826,13.2970,4.59888,2453.740,38.4859
2023-09-25T15:12:49,2420,42.8014,5.9826,13.2969,4.59898,2453.785,38.4869
2023-09-25T15:15:49,2420,42.8014,5.9826,13.2969,4.59892,2453.762,38.4863
2023-09-25T15:18:49,2420,42.8014,5.9826,13.2968,4.59896,2453.740,38.4868
2023-09-25T15:21:49,2420,42.8014,5.9826,13.2971,4.59903,2453.740,38.4871
2023-09-25T15:24:49,2420,42.8014,5.9826,13.2968,4.59901,2453.762,38.4873
2023-09-25T15:27:49,2420,42.8014,5.9826,13.2973,4.59896,2453.785,38.4863
2023-09-25T15:30:49,2420,42.8014,5.9826,13.2971,4.59896,2453.740,38.4865
2023-09-25T15:33:49,2420,42.8014,5.9826,13.2966,4.59892,2453.762,38.4866
2023-09-25T15:36:49,2420,42.8014,5.9826,13.2973,4.59894,2453.762,38.4862
2023-09-25T15:39:49,2420,42.8014,5.9826,13.2972,4.59903,2453.762,38.4870
2023-09-25T15:42:49,2420,42.8014,5.9826,13.2970,4.59892,2453.740,38.4862
2023-09-25T15:45:49,2420,42.8014,5.9826,13.2970,4.59888,2453.748,38.4859
2023-09-25T15:48:49,2420,42.8014,5.9826,13.2970,4.59885,2453.762,38.4855
2023-09-25T15:51:49,2420,42.8014,5.9826,13.2970,4.59892,2453.785,38.4861
2023-09-25T15:54:49,2420,42.8014,5.9826,13.2970,4.59888,2453.762,38.4859
2023-09-25T15:57:49,2420,42.8014,5.9826,13.2970,4.59883,2453.785,38.4854
2023-09-25T16:00:49,2420,42.8014,5.9826,13.2971,4.59888,2453.785,38.4857
2023-09-25T16:03:49,2420,42.8014,5.9826,13.2968,4.59883,2453.785,38.4856